Stündliche Wetter Barlogi

Heute, 26 Oktober, Montag

Zeit Temperatur Niederschläge Wind Luftdruck Luftfeuchtigkeit
00:00 +12°C° 0 mm 2 m/S 749 mmHg 85%
01:00 +12°C° 0 mm 2 m/S 749 mmHg 88%
02:00 +10°C° 0 mm 2 m/S 749 mmHg 90%
03:00 +10°C° 0 mm 2 m/S 749 mmHg 92%
04:00 +10°C° 0 mm 2 m/S 749 mmHg 93%
05:00 +10°C° 0 mm 2 m/S 748 mmHg 94%
06:00 +10°C° 0 mm 2 m/S 748 mmHg 94%
07:00 +9°C° 0 mm 2 m/S 748 mmHg 94%
08:00 +12°C° 0 mm 2 m/S 748 mmHg 88%
09:00 +13°C° 0 mm 2 m/S 748 mmHg 82%
10:00 +15°C° 0 mm 2 m/S 748 mmHg 76%
11:00 +15°C° 0 mm 2 m/S 748 mmHg 77%
12:00 +14°C° 0 mm 2 m/S 748 mmHg 78%
13:00 +14°C° 0 mm 1 m/S 748 mmHg 79%
14:00 +14°C° 0.2 mm 2 m/S 748 mmHg 83%
15:00 +13°C° 0.2 mm 2 m/S 748 mmHg 86%
16:00 +12°C° 0.2 mm 2 m/S 748 mmHg 90%
17:00 +12°C° 0.1 mm 2 m/S 748 mmHg 91%
18:00 +12°C° 0.1 mm 2 m/S 749 mmHg 91%
19:00 +10°C° 0.1 mm 2 m/S 749 mmHg 92%
20:00 +11°C° 0 mm 1 m/S 749 mmHg 93%
21:00 +11°C° 0 mm 1 m/S 749 mmHg 94%
22:00 +10°C° 0 mm 1 m/S 749 mmHg 95%
23:00 +10°C° 0 mm 1 m/S 749 mmHg 93%

Morgen, 27 Oktober, Dienstag

Zeit Temperatur Niederschläge Wind Luftdruck Luftfeuchtigkeit
00:00 +11°C° 0 mm 1 m/S 750 mmHg 92%
01:00 +11°C° 0 mm 1 m/S 750 mmHg 90%
02:00 +11°C° 0.1 mm 1 m/S 750 mmHg 90%
03:00 +10°C° 0.1 mm 1 m/S 750 mmHg 90%
04:00 +10°C° 0.1 mm 1 m/S 750 mmHg 90%
05:00 +10°C° 0.2 mm 1 m/S 750 mmHg 91%
06:00 +10°C° 0.2 mm 1 m/S 750 mmHg 91%
07:00 +10°C° 0.2 mm 1 m/S 750 mmHg 92%
08:00 +10°C° 0.2 mm 1 m/S 750 mmHg 92%
09:00 +10°C° 0.2 mm 1 m/S 750 mmHg 91%
10:00 +10°C° 0.2 mm 1 m/S 750 mmHg 91%
11:00 +11°C° 0.4 mm 1 m/S 750 mmHg 91%
12:00 +11°C° 0.4 mm 1 m/S 750 mmHg 91%
13:00 +11°C° 0.4 mm 1 m/S 751 mmHg 90%
14:00 +11°C° 0.3 mm 1 m/S 751 mmHg 90%
15:00 +11°C° 0.3 mm 1 m/S 751 mmHg 90%
16:00 +11°C° 0.3 mm 1 m/S 751 mmHg 89%
17:00 +9°C° 0 mm 2 m/S 751 mmHg 89%
18:00 +9°C° 0 mm 2 m/S 752 mmHg 89%
19:00 +9°C° 0 mm 2 m/S 752 mmHg 89%
20:00 +8°C° 0 mm 2 m/S 752 mmHg 89%
21:00 +8°C° 0 mm 2 m/S 752 mmHg 89%
22:00 +8°C° 0 mm 3 m/S 752 mmHg 89%
23:00 +7°C° 0 mm 3 m/S 752 mmHg 89%

übermorgen, 28 Oktober, Mittwoch

Zeit Temperatur Niederschläge Wind Luftdruck Luftfeuchtigkeit
00:00 +7°C° 0 mm 3 m/S 752 mmHg 89%
01:00 +7°C° 0 mm 3 m/S 752 mmHg 89%
02:00 +7°C° 0 mm 3 m/S 752 mmHg 89%
03:00 +7°C° 0 mm 3 m/S 752 mmHg 89%
04:00 +7°C° 0 mm 3 m/S 752 mmHg 90%
05:00 +6°C° 0 mm 4 m/S 752 mmHg 88%
06:00 +6°C° 0 mm 4 m/S 752 mmHg 86%
07:00 +6°C° 0 mm 4 m/S 752 mmHg 84%
08:00 +7°C° 0 mm 4 m/S 752 mmHg 79%
09:00 +8°C° 0 mm 4 m/S 752 mmHg 74%
10:00 +10°C° 0 mm 4 m/S 752 mmHg 69%
11:00 +10°C° 0 mm 4 m/S 752 mmHg 68%
12:00 +11°C° 0 mm 4 m/S 752 mmHg 68%
13:00 +11°C° 0 mm 4 m/S 752 mmHg 68%
14:00 +11°C° 0 mm 4 m/S 752 mmHg 69%
15:00 +11°C° 0 mm 3 m/S 752 mmHg 70%
16:00 +11°C° 0 mm 3 m/S 752 mmHg 71%
17:00 +10°C° 0 mm 3 m/S 752 mmHg 74%
18:00 +9°C° 0 mm 3 m/S 752 mmHg 76%
19:00 +8°C° 0 mm 4 m/S 752 mmHg 79%
20:00 +9°C° 0 mm 3 m/S 752 mmHg 79%
21:00 +9°C° 0 mm 3 m/S 753 mmHg 79%
22:00 +9°C° 0 mm 3 m/S 753 mmHg 80%
23:00 +9°C° 0 mm 3 m/S 753 mmHg 79%

29 Oktober, Donnerstag

Zeit Temperatur Niederschläge Wind Luftdruck Luftfeuchtigkeit
00:00 +8°C° 0 mm 4 m/S 752 mmHg 79%
01:00 +8°C° 0 mm 4 m/S 752 mmHg 79%
02:00 +10°C° 0 mm 4 m/S 752 mmHg 78%
03:00 +10°C° 0 mm 4 m/S 752 mmHg 78%
04:00 +10°C° 0 mm 4 m/S 752 mmHg 77%
05:00 +10°C° 0.3 mm 4 m/S 752 mmHg 79%
06:00 +10°C° 0.3 mm 4 m/S 752 mmHg 81%
07:00 +10°C° 0.3 mm 4 m/S 752 mmHg 83%
08:00 +10°C° 0.3 mm 5 m/S 753 mmHg 79%
09:00 +10°C° 0.3 mm 6 m/S 753 mmHg 74%
10:00 +11°C° 0.3 mm 7 m/S 754 mmHg 70%
11:00 +13°C° 0.1 mm 6 m/S 754 mmHg 67%
12:00 +13°C° 0.1 mm 6 m/S 754 mmHg 65%
13:00 +13°C° 0.1 mm 6 m/S 754 mmHg 63%
14:00 +13°C° 0 mm 5 m/S 755 mmHg 65%
15:00 +12°C° 0 mm 4 m/S 755 mmHg 68%
16:00 +11°C° 0 mm 3 m/S 755 mmHg 71%
17:00 +11°C° 0 mm 3 m/S 756 mmHg 74%
18:00 +10°C° 0 mm 3 m/S 756 mmHg 77%
19:00 +9°C° 0 mm 3 m/S 756 mmHg 80%
20:00 +9°C° 0 mm 3 m/S 756 mmHg 80%
21:00 +8°C° 0 mm 4 m/S 757 mmHg 80%
22:00 +8°C° 0 mm 4 m/S 757 mmHg 80%
23:00 +10°C° 0 mm 4 m/S 757 mmHg 79%

30 Oktober, Freitag

Zeit Temperatur Niederschläge Wind Luftdruck Luftfeuchtigkeit
00:00 +10°C° 0 mm 4 m/S 757 mmHg 79%
01:00 +10°C° 0 mm 4 m/S 756 mmHg 78%
02:00 +10°C° 0.1 mm 4 m/S 756 mmHg 79%
03:00 +10°C° 0.1 mm 5 m/S 756 mmHg 79%
04:00 +10°C° 0.1 mm 5 m/S 756 mmHg 80%
05:00 +10°C° 0 mm 5 m/S 756 mmHg 80%
06:00 +12°C° 0 mm 5 m/S 756 mmHg 81%
07:00 +12°C° 0 mm 5 m/S 756 mmHg 81%
08:00 +13°C° 0 mm 5 m/S 757 mmHg 79%
09:00 +13°C° 0 mm 5 m/S 757 mmHg 76%
10:00 +14°C° 0 mm 6 m/S 757 mmHg 73%
11:00 +15°C° 0 mm 6 m/S 757 mmHg 70%
12:00 +15°C° 0 mm 6 m/S 757 mmHg 68%
13:00 +16°C° 0 mm 6 m/S 757 mmHg 65%
14:00 +15°C° 0 mm 5 m/S 757 mmHg 68%
15:00 +15°C° 0 mm 4 m/S 757 mmHg 70%
16:00 +16°C° 0 mm 3 m/S 757 mmHg 73%
17:00 +14°C° 0 mm 3 m/S 758 mmHg 76%
18:00 +13°C° 0 mm 3 m/S 758 mmHg 79%
19:00 +13°C° 0 mm 2 m/S 758 mmHg 83%
20:00 +13°C° 0 mm 2 m/S 758 mmHg 84%
21:00 +11°C° 0 mm 3 m/S 758 mmHg 85%
22:00 +11°C° 0 mm 3 m/S 758 mmHg 86%
23:00 +12°C° 0 mm 2 m/S 758 mmHg 87%

31 Oktober, Samstag

Zeit Temperatur Niederschläge Wind Luftdruck Luftfeuchtigkeit
00:00 +10°C° 0 mm 2 m/S 758 mmHg 88%
01:00 +10°C° 0 mm 2 m/S 758 mmHg 89%
02:00 +10°C° 0 mm 2 m/S 758 mmHg 88%
03:00 +10°C° 0 mm 2 m/S 758 mmHg 87%
04:00 +9°C° 0 mm 2 m/S 758 mmHg 86%
05:00 +9°C° 0 mm 2 m/S 757 mmHg 85%
06:00 +9°C° 0 mm 2 m/S 757 mmHg 84%
07:00 +9°C° 0 mm 3 m/S 757 mmHg 83%
Mehr zeigen